Location: Epalinges
(46.5518°N, 6.6683°E)
Time: 19:57:36
(UTC+00:00)

DELTA 2 R/B (1) - Pass Details

Date: 20 June 2021
Orbit: 789 x 803 km, 39.6° (Epoch: 31 July)

Event Time Altitude Azimuth Distance (km) Brightness Sun altitude
Exits shadow 01:57:34 13° 246° (WSW) 2,137 5.3 -12.9°
Maximum altitude 02:02:06 41° 180° (S) 1,129 4.0 -12.5°
Drops below altitude 10° 02:07:16 10° 111° (ESE) 2,351 6.2 -12.0°
Sets 02:09:52 0° 105° (ESE) 3,282 7.1 -11.7°
